Weather History for KINK - September, 2014

Change the Weather History Date:

Sunday, September 14, 2014

  Actual Average Record
Temperature  
Mean Temperature 62 °F -  
Max Temperature 68 °F 87 °F 105 °F (2005)
Min Temperature 57 °F 62 °F 52 °F (1959)
Degree Days  
Heating Degree Days 2    
Growing Degree Days 12 (Base 50)    
Moisture  
Dew Point 58 °F    
Average Humidity 87    
Maximum Humidity 93    
Minimum Humidity 78    
Precipitation  
Precipitation 0.00 in - - ()
Sea Level Pressure  
Sea Level Pressure 30.15 in    
Wind  
Wind Speed 6 mph (SE)    
Max Wind Speed 13 mph    
Max Gust Speed -    
Visibility 10 miles    
Events Rain    
Averages and records for this station are not official NWS values.
T = Trace of Precipitation, MM = Missing Value Source: NWS Daily Summary

Daily Weather History Graph

Daily Weather History Graph

Search for Another Location

Airport or City:

Trip Planner

Search our weather history database for the weather conditions in past years. The results will help you decide how hot, cold, wet, or windy it might be!

Date:

Astronomy

Sep. 14, 2014 Rise Set
Actual Time 7:36 AM CDT 7:59 PM CDT
Civil Twilight 7:11 AM CDT 8:24 PM CDT
Nautical Twilight 6:43 AM CDT 8:52 PM CDT
Astronomical Twilight 6:14 AM CDT 9:21 PM CDT
Moon No Moon Rise 1:23 PM CDT (9/14)
Length of Visible Light 13h 12m
Length of Day
12h 23m
Waning Gibbous, 64% of the Moon is Illuminated
Sep 14
Waning Gibbous
Sep 15
Last Quarter
Sep 24
New
Oct 1
First Quarter
Oct 8
Full

Hourly Weather History & Observations

Time (CDT) Temp. Dew Point Humidity Pressure Visibility Wind Dir Wind Speed Gust Speed Precip Events Conditions
12:53 AM 57.0 °F 52.0 °F 83% 30.18 in 10.0 mi South 4.6 mph - N/A   Overcast
1:53 AM 57.0 °F 53.1 °F 87% 30.17 in 10.0 mi South 4.6 mph - N/A   Overcast
2:53 AM 57.0 °F 52.0 °F 83% 30.16 in 10.0 mi Calm Calm - N/A   Overcast
3:53 AM 57.9 °F 53.1 °F 84% 30.15 in 10.0 mi Calm Calm - N/A   Overcast
4:53 AM 57.0 °F 53.1 °F 87% 30.14 in 10.0 mi Calm Calm - N/A   Overcast
5:13 AM 57.0 °F 53.1 °F 87% 30.20 in 10.0 mi ENE 3.5 mph - N/A   Overcast
5:53 AM 57.0 °F 54.0 °F 89% 30.14 in 10.0 mi ESE 3.5 mph - 0.00 in   Overcast
6:01 AM 57.2 °F 53.6 °F 88% 30.21 in 10.0 mi ESE 4.6 mph - N/A   Overcast
6:53 AM 57.9 °F 54.0 °F 87% 30.14 in 10.0 mi ESE 4.6 mph - N/A   Overcast
7:42 AM 57.0 °F 55.0 °F 93% 30.22 in 10.0 mi ESE 5.8 mph - N/A   Overcast
7:53 AM 57.0 °F 55.0 °F 93% 30.16 in 10.0 mi ESE 4.6 mph - N/A   Overcast
8:36 AM 57.0 °F 55.0 °F 93% 30.23 in 10.0 mi SE 6.9 mph - N/A   Overcast
8:53 AM 57.9 °F 55.0 °F 90% 30.18 in 10.0 mi SE 5.8 mph - N/A   Overcast
9:01 AM 57.9 °F 55.0 °F 90% 30.24 in 10.0 mi SE 5.8 mph - N/A   Overcast
9:53 AM 59.0 °F 55.9 °F 90% 30.19 in 10.0 mi SE 5.8 mph - 0.00 in Rain Light Rain
10:53 AM 60.1 °F 57.0 °F 90% 30.18 in 10.0 mi SE 4.6 mph - 0.00 in   Overcast
11:53 AM 61.0 °F 57.9 °F 90% 30.19 in 10.0 mi SE 9.2 mph - N/A   Overcast
12:53 PM 63.0 °F 57.9 °F 84% 30.17 in 10.0 mi SE 9.2 mph - N/A   Overcast
1:24 PM 63.0 °F 57.9 °F 84% 30.24 in 10.0 mi SSE 6.9 mph - N/A   Overcast
1:53 PM 64.0 °F 59.0 °F 84% 30.16 in 10.0 mi SE 9.2 mph - N/A   Overcast
2:53 PM 64.9 °F 60.1 °F 84% 30.13 in 10.0 mi SE 8.1 mph - 0.00 in   Overcast
3:53 PM 66.0 °F 60.1 °F 81% 30.11 in 10.0 mi SE 11.5 mph - N/A   Overcast
4:49 PM 66.2 °F 60.8 °F 83% 30.17 in 10.0 mi ESE 10.4 mph - N/A   Overcast
4:53 PM 66.9 °F 61.0 °F 81% 30.09 in 10.0 mi ESE 10.4 mph - N/A   Overcast
5:27 PM 66.9 °F 60.1 °F 79% 30.16 in 10.0 mi SE 10.4 mph - N/A   Overcast
5:53 PM 66.9 °F 61.0 °F 81% 30.09 in 10.0 mi SE 11.5 mph - N/A   Overcast
6:53 PM 68.0 °F 61.0 °F 78% 30.07 in 10.0 mi SE 10.4 mph - N/A   Overcast
7:01 PM 68.0 °F 62.1 °F 81% 30.16 in 10.0 mi SE 12.7 mph - N/A   Overcast
7:53 PM 66.9 °F 62.1 °F 84% 30.08 in 10.0 mi ESE 10.4 mph - N/A   Overcast
8:53 PM 66.0 °F 63.0 °F 90% 30.07 in 10.0 mi SE 10.4 mph - N/A   Overcast
9:53 PM 66.0 °F 63.0 °F 90% 30.09 in 10.0 mi SE 9.2 mph - N/A   Overcast
10:15 PM 66.0 °F 63.0 °F 90% 30.17 in 10.0 mi SE 12.7 mph - N/A   Overcast
10:36 PM 66.0 °F 63.0 °F 90% 30.17 in 10.0 mi SE 11.5 mph - N/A   Overcast
10:53 PM 66.0 °F 63.0 °F 90% 30.09 in 10.0 mi SE 11.5 mph - N/A   Overcast
11:12 PM 66.0 °F 63.0 °F 90% 30.17 in 10.0 mi SE 10.4 mph - N/A   Overcast
11:53 PM 66.0 °F 63.0 °F 90% 30.09 in 10.0 mi SE 11.5 mph - N/A   Overcast